NINGXIA-1 1

Last updated on Sat Dec 14 2019 00:02:03 GMT+0000 (Coordinated Universal Time)

1 44779U 19076A 19347.43509366 -.00000129 00000-0 00000+0 0 9996 2 44779 45.0114 0.9308 0007606 24.6853 335.4343 14.00254468 4233
UTC large
Height (km)
Speed (km/s)
/
Latitude / Longitude
Inclination (degrees)
Orbital Period (minutes)
Azimuth
Elevation
Range (km)
Doppler Factor

Next 0 passes for location: London (51.5072 / 0.1276)

Sorry there are no passes over London.